Presure
129 133 136 133 131 134 83 139 135 134 136 140 136 136 139 138 134 138 147 144 137 128 123 128 129 131 126 120 165 161 137 161 159 153 144 143 145 151 152 160 165 172 166
147 128 136 132 128 103 136 125 121 140 135 132 131 131 134 131 138 141 139 132 105 135 158 142 142 144 146 150 153 102 171 161 169 147 140 160 156 170 147 147 157 168 147
114 135 154 135 140 130 135 142 110 135 128 133 141 135 132 129 143 130 137 126 135 135 143 140 143 135 138 116 127 149 127 157 150 155 125 141 155 145 119 120 183 148 108
133 126 135 141 137 139 158 137 135 133 139 141 129 142 140 138 138 120 136 145 135 143 125 147 119 117 148 148 147 154 149 141 140 126 143 177 143 130 172 181 185 171 168
123 141 136 132 130 168 139 129 133 130 136 143 143 142 140 123 141 140 125 140 137 93 142 141 140 142 140 145 146 149 144 135 143 122 160 143 136 176 166 150 134 154 165
131 161 144 118 122 160 142 144 140 89 143 149 145 139 102 142 140 146 132 90 95 128 111 119 133 136 129 141 143 93 154 149 123 131 136 90 128 129 180 143 181 178 191
170 155 175 131 134 136 97 88 90 97 137 139 116 143 132 134 131 153 135 155 159 144 141 136 143 129 144 93 144 141 96 90 86 85 97 106 97 90 124 166 177 171 176
162 147 157 142 154 146 122 82 130 161 138 168 133 109 126 148 146 152 110 148 138 135 142 142 147 152 103 139 94 132 144 141 116 109 111 125 150 129 158 181 181 153 188
137 148 164 107 168 101 111 94 124 114 105 102 105 183 118 120 122 161 168 152 150 177 124 121 149 89 97 156 82 83 123 144 147 91 88 159 188 130 176 193 186 187 189
133 162 147 100 171 94 90 134 124 129 154 165 142 124 116 162 140 152 130 152 152 148 95 94 101 96 114 82 103 148 136 136 85 89 131 90 154 103 147 104 108 150 165
143 165 133 159 109 101 91 119 103 101 103 149 129 107 162 144 112 125 105 111 98 123 88 85 82 84 85 85 88 89 87 90 107 81 110 91 95 101 96 103 103 107 103
133 165 170 142 101 92 102 150 145 166 113 153 114 103 142 109 137 102 103 115 104 88 87 93 87 90 89 91 83 93 90 98 107 138 166 135 90 169 182 103 98 103 107
127 150 174 92 101 101 101 185 94 97 102 90 96 94 182 101 207 103 121 97 88 87 89 82 93 85 84 81 85 84 101 108 118 148 148 111 188 167 104 120 96 99 114
144 184 174 163 141 203 104 90 99 89 93 97 95 108 86 110 100 99 104 88 102 80 88 87 91 84 85 84 79 147 109 122 104 103 155 90 110 107 106 105 97 94 177
143 94 184 112 202 99 102 101 91 173 97 90 93 102 152 95 96 93 96 157 90 93 92 112 89 90 88 128 125 113 123 120 100 109 109 211 111 107 106 109 102 103 110
201 204 194 204 219 207 104 96 185 101 160 99 95 86 89 82 99 94 145 123 169 88 85 92 97 83 131 162 150 115 204 127 108 115 143 99 94 107 108 106 104 102 102
154 223 221 195 204 217 222 200 136 115 102 111 111 102 91 93 84 93 90 94 101 108 110 84 215 210 168 99 94 97 110 200 106 108 116 94 91 107 98 104 105 107 105
175 217 214 217 207 224 117 188 193 114 117 107 103 103 99 99 98 95 96 96 96 122 102 104 209 127 233 123 121 204 103 106 108 110 112 93 93 94 102 102 206 103 113
222 216 83 89 177 194 175 186 133 190 144 99 179 108 106 99 108 96 85 84 159 144 100 166 109 107 123 199 85 124 118 119 109 171 103 109 88 102 107 203 205 132 195
226 226 220 189 193 117 209 215 195 211 232 187 97 188 101 99 98 100 103 86 99 83 200 201 199 190 123 208 183 169 198 144 100 103 193 107 120 228 221 217 114 207 199
223 224 226 214 224 193 223 220 181 182 224 101 101 103 103 101 83 218 94 248 94 190 193 193 122 191 190 192 89 97 141 106 109 110 155 183 112 218 199 214 217 223 218
220 217 216 223 190 206 229 222 218 237 206 233 214 227 208 210 214 223 127 123 124 234 215 194 184 158 130 97 101 183 180 107 126 120 150 188 182 198 202 224 216 204 207
213 213 222 200 220 226 195 191 222 170 227 95 99 161 116 204 155 83 128 230 260 206 90 95 96 100 101 102 150 147 123 115 181 110 165 187 175 187 183 177 207 206 218
211 207 208 208 190 207 222 207 218 226 243 168 202 210 239 93 201 95 108 89 96 241 85 95 101 201 222 207 198 186 182 125 190 180 184 183 183 183 178 181 173 176 207
225 217 211 212 218 224 213 209 202 206 231 237 229 233 234 245 216 97 96 96 102 121 226 191 236 231 176 93 215 221 205 210 186 188 185 188 182 180 171 180 178 172 179
176 193 217 209 215 215 223 184 220 225 203 230 242 241 223 225 239 207 203 209 215 227 239 245 227 230 186 227 217 212 221 215 166 196 203 187 181 180 171 179 180 184 179
Wind_Speed
43 45 43 43 42 42 18 41 40 39 38 37 37 35 34 33 34 34 32 32 32 30 28 32 31 33 32 30 41 42 36 44 45 46 46 47 48 51 52 57 61 64 65
49 46 48 45 41 29 44 36 33 40 41 39 38 37 36 36 35 36 35 35 19 34 38 36 38 38 39 38 38 16 45 42 49 43 39 51 53 58 50 51 60 62 52
37 49 53 50 52 43 45 48 32 42 38 41 43 41 38 35 39 37 38 33 37 37 38 38 38 38 38 25 36 41 32 43 45 46 31 45 53 50 30 34 60 46 30
49 47 54 55 51 51 59 49 46 44 46 47 38 46 44 43 41 28 40 44 39 42 31 42 28 29 43 45 46 47 46 42 42 33 46 58 47 37 61 60 62 63 66
45 55 49 51 48 54 49 42 47 41 46 51 51 49 46 34 44 45 35 43 40 18 43 43 44 45 42 46 48 47 44 40 44 30 50 47 40 60 60 46 41 59 63
52 59 57 39 40 59 60 48 54 26 54 58 53 47 23 48 45 51 43 22 23 36 22 29 38 43 32 44 46 19 53 51 30 42 39 19 35 38 71 51 70 71 73
57 53 56 53 54 57 29 28 27 29 47 53 32 53 38 41 39 58 41 57 60 50 47 42 47 34 48 19 49 45 17 17 18 21 24 32 26 21 38 66 72 70 70
62 67 67 61 68 65 50 25 48 61 47 65 40 28 35 54 53 60 23 56 44 47 48 49 53 55 25 49 17 39 49 47 36 29 34 36 55 47 65 78 76 58 75
58 69 65 40 64 34 40 33 49 32 30 31 30 67 36 32 32 67 71 58 55 70 33 30 57 15 18 61 16 16 35 49 51 27 25 63 79 49 72 78 75 76 74
57 69 75 40 66 39 35 50 39 42 71 71 53 36 39 72 50 61 39 58 61 56 21 20 21 19 30 18 25 56 45 47 22 25 52 29 65 37 60 39 38 61 66
72 72 65 68 42 39 37 45 36 34 34 55 43 30 72 57 35 40 29 28 25 39 20 19 18 19 18 20 23 25 25 29 36 18 40 33 36 40 39 42 41 42 42
62 75 75 59 42 39 39 70 75 79 42 59 43 31 60 34 52 31 29 33 31 22 22 24 23 23 23 24 23 28 29 34 39 56 74 56 35 72 79 44 43 45 46
60 80 74 39 46 44 42 83 38 36 36 31 29 32 67 33 83 33 40 28 24 24 25 23 28 26 23 22 25 27 40 42 45 59 64 42 83 71 45 50 44 48 52
75 84 77 72 61 70 49 37 41 37 37 36 35 36 29 35 33 30 33 28 32 26 29 29 32 27 28 26 24 68 45 49 44 40 63 37 44 44 48 48 48 47 62
74 36 81 50 78 37 48 45 40 55 43 38 38 37 52 35 36 31 33 52 33 36 34 42 33 34 34 54 50 48 50 51 46 50 46 83 48 50 51 51 52 54 56
93 90 89 80 71 70 46 43 58 46 55 46 43 38 38 28 40 35 52 47 61 35 31 39 36 30 53 64 63 50 86 52 50 53 56 49 46 54 56 57 57 58 59
56 72 71 77 71 64 62 60 55 52 50 52 52 48 43 42 31 37 33 36 42 49 50 32 68 70 63 48 48 48 50 74 53 54 58 50 52 57 54 61 62 63 65
56 68 70 68 69 64 52 56 64 50 57 55 49 50 49 51 48 42 39 41 45 56 50 50 65 53 64 53 56 56 53 56 57 57 61 52 56 58 63 64 63 65 68
69 68 40 42 65 67 76 63 54 70 62 48 63 57 53 49 55 45 33 33 60 55 49 61 57 49 56 60 40 61 63 64 60 62 59 64 51 65 67 65 65 68 66
65 67 67 65 64 52 66 60 66 65 60 75 50 62 53 53 51 54 57 33 53 35 66 65 64 64 60 60 61 60 61 66 59 61 64 65 73 58 59 61 67 62 64
68 65 64 67 62 70 60 62 71 72 61 55 56 57 56 53 35 67 45 70 50 72 69 66 60 65 63 62 49 61 65 66 67 68 64 63 74 61 62 63 64 63 62
73 71 68 64 68 68 61 60 60 57 64 60 64 63 67 67 66 67 47 67 68 72 72 70 71 64 64 61 65 65 66 65 68 66 64 62 61 62 61 61 63 63 66
76 74 72 70 66 62 71 68 58 56 58 49 49 58 44 69 63 33 51 67 65 69 52 57 60 63 65 64 69 71 70 71 70 63 60 62 65 64 63 64 66 66 68
81 79 75 71 75 61 65 63 64 58 54 60 61 58 57 47 70 57 50 49 56 67 43 59 63 71 75 72 72 71 72 76 70 70 65 66 65 65 66 66 67 67 69
81 84 81 76 74 71 69 65 70 63 56 58 63 59 59 60 68 60 59 59 63 65 69 68 73 73 63 49 73 76 73 73 72 71 72 68 69 69 69 68 70 71 69
64 73 85 79 77 73 70 69 70 63 64 62 59 58 62 63 61 68 68 69 67 66 67 70 72 74 74 74 74 75 73 74 70 73 73 73 72 72 72 73 72 74 74
Wind_Direction
242 239 243 237 240 237 224 235 236 238 237 239 242 242 248 249 253 255 258 261 261 258 259 266 267 272 276 275 281 281 280 279 278 279 277 279 281 283 284 284 285 285 282
229 250 239 240 247 232 238 252 257 240 242 246 246 248 248 252 252 255 257 262 259 259 276 263 267 270 269 273 277 294 286 283 284 279 286 283 284 285 284 284 283 285 286
256 244 245 244 240 248 244 241 237 245 251 248 249 250 252 254 252 256 259 256 261 264 261 262 265 273 273 282 280 277 278 280 278 281 284 286 286 285 286 285 292 288 279
247 253 247 243 247 245 253 245 246 250 248 250 250 249 250 251 251 265 256 255 262 262 263 262 275 274 274 276 275 282 280 279 279 283 284 291 284 288 292 292 293 290 290
246 242 255 251 242 252 252 250 251 255 252 249 250 250 250 262 253 256 269 257 261 276 263 264 269 270 273 274 274 278 280 277 282 285 287 284 287 295 290 288 285 292 294
251 254 245 253 259 251 250 254 252 234 253 254 253 251 241 252 257 255 254 252 262 273 262 269 272 275 278 274 275 290 279 279 282 283 287 307 282 281 300 291 298 298 300
255 251 257 249 249 250 217 235 234 231 257 252 247 254 259 260 261 259 267 259 259 264 267 274 270 272 272 284 275 276 285 293 296 296 300 303 305 307 292 294 298 296 297
252 252 245 253 246 251 244 247 248 259 259 254 258 248 258 257 264 262 256 265 265 261 270 274 273 271 276 274 282 277 279 281 289 294 300 287 291 296 292 296 295 290 299
242 254 255 227 256 220 235 233 245 244 228 229 237 264 251 255 255 262 259 268 270 269 270 270 271 266 269 275 282 294 278 281 283 303 309 291 290 296 293 296 297 298 300
256 254 254 229 261 229 236 253 247 257 257 255 267 253 247 257 270 269 262 263 272 274 245 250 256 262 276 278 282 282 280 285 303 306 292 313 290 301 295 302 304 300 303
254 254 251 258 237 229 238 247 230 234 234 259 257 242 262 264 253 262 245 252 236 266 249 255 265 274 275 280 285 288 292 292 290 308 297 310 305 299 305 300 302 301 303
256 255 257 255 235 238 235 261 256 262 243 263 259 242 266 253 263 248 244 255 257 255 262 265 269 271 275 282 283 293 294 294 286 285 286 291 313 290 291 297 305 303 302
254 257 261 249 236 238 235 268 240 241 242 246 246 249 263 252 268 252 256 244 257 260 265 268 274 275 274 281 288 293 290 284 280 288 291 286 288 288 292 294 305 304 302
253 268 264 263 260 262 238 242 236 247 246 246 247 253 255 258 254 255 260 253 262 255 263 268 275 275 280 281 284 277 282 279 286 285 285 305 288 290 289 292 301 305 295
253 260 267 245 272 256 239 240 244 256 242 249 247 245 256 254 254 256 256 263 260 264 265 274 272 280 284 277 277 277 281 281 288 285 285 285 286 289 291 293 297 298 298
268 267 269 266 266 263 249 247 259 244 256 244 245 255 253 260 252 257 260 264 262 267 271 269 277 282 274 271 277 279 275 277 285 283 282 292 300 293 293 295 296 299 299
261 263 262 264 264 266 262 259 252 248 248 250 249 248 255 258 257 261 263 268 272 273 273 281 273 271 273 279 284 286 283 280 287 287 285 297 303 292 296 295 295 296 297
261 262 262 264 264 267 255 262 255 253 251 250 251 249 254 257 259 265 266 269 272 267 273 277 274 272 276 273 275 281 287 286 286 286 285 299 300 301 296 297 280 297 295
262 260 253 248 256 257 258 258 257 257 256 253 261 251 252 259 259 266 258 261 268 268 273 269 274 277 273 276 288 274 276 278 284 284 290 288 299 294 291 280 281 292 283
262 262 258 254 258 254 262 261 258 264 265 260 254 263 256 259 265 267 265 270 272 281 267 269 270 271 272 276 275 277 276 277 288 288 283 290 287 282 280 280 295 279 281
263 262 261 259 264 253 264 266 254 258 264 255 254 256 259 262 265 266 272 261 273 263 265 267 267 269 272 272 291 286 279 286 285 285 287 287 288 283 282 280 278 278 277
266 265 263 263 262 264 266 265 266 267 261 264 262 264 263 264 266 267 270 265 267 263 266 265 266 272 274 284 283 270 274 286 283 287 289 284 284 287 286 280 279 280 280
265 264 264 253 262 263 259 257 265 263 268 265 259 261 259 262 257 281 274 266 263 268 279 276 278 280 281 280 275 275 282 286 277 288 285 283 281 286 286 285 284 283 281
259 262 262 262 253 256 263 264 265 266 271 263 265 265 269 269 263 266 273 278 273 266 280 278 277 270 269 271 270 270 272 283 278 277 279 280 282 282 283 285 284 286 286
254 256 261 261 262 264 261 261 262 260 270 273 267 266 265 266 265 260 266 270 269 271 269 268 267 268 274 291 273 274 275 275 275 277 279 280 279 280 279 284 283 283 287
263 259 257 260 260 260 262 263 265 267 262 272 278 274 266 267 269 267 269 270 269 269 268 267 269 269 273 270 272 273 274 275 280 276 278 278 279 280 278 282 284 288 288